User: anonymous
Location: Hamburg
(53.5500°N, 10.0000°E)
Time: 06:04:45
(UTC+02:00)
Language:

Courier 1B - Orbit

View from above orbital plane
View from above orbital plane
View from above satellite
View from above satellite

Ground track
Ground track

The orbit data is extracted from the following two-line orbital elements,

1 00058U 60013A   14261.59346735  .00000108  00000-0  35072-4 0  7638
2 00058 028.3277 302.4471 0165115 333.0116 026.1922 13.46280460656093
Epoch (UTC): 18 September 2014 14:14:35
Eccentricity: 0.0165115
inclination: 28.3277°
perigee height: 963 km
apogee height: 1209 km
right ascension of ascending node: 302.4471°
argument of perigee: 333.0116°
revolutions per day: 13.46280460
mean anomaly at epoch: 26.1922°
orbit number at epoch: 65609

The dashed part of the orbit path shows where the satellite is in the earth's shadow,  

DLR